Vertical_Velocity
0 -4 11 -0 -3 -7 -1 0 0 1 -1 4 -4 -3 12 -5 2 2 -5 4 2 1 1 -5 -2 -2 -3 -0 -4 1 -3 3 -3 -6 -6 6 4 -11 4 1 3 3 9 1
-1 11 -6 -4 -1 -2 6 6 5 -0 -6 -10 2 1 1 3 -1 -1 2 1 1 -7 -4 0 -2 -2 -2 -0 -0 -3 -2 0 6 -5 -1 -5 -2 -4 6 -0 3 -2 7 -3
2 2 -1 1 0 4 2 -1 -0 1 -3 1 -10 0 -5 -1 9 -0 1 -3 -4 1 -3 1 -0 -0 2 3 4 2 0 -0 -0 5 -10 -0 2 1 1 0 -5 5 3 -1
-2 4 -1 2 7 -1 0 -4 7 1 -1 -5 2 -27 -2 4 -1 4 7 -2 -3 -2 -1 -1 0 -2 -1 6 3 -0 2 5 -6 9 -9 -0 -1 2 2 1 -1 4 -3 2
14 2 -1 6 -1 1 -2 7 -2 -2 -1 -6 1 -18 14 7 4 0 3 6 6 -3 -2 -3 -1 -2 1 -0 7 4 -1 5 -1 7 -2 -2 1 4 -3 -0 4 4 4 3
5 3 5 -1 0 -1 1 1 -1 -3 -2 -14 15 -10 1 -3 3 11 -2 -0 4 -6 -6 -3 -3 2 2 -1 -0 6 0 2 6 1 -5 9 -2 6 2 2 -0 -3 2 2
3 8 -1 -0 0 -2 2 1 -4 -10 -9 -5 -6 -15 14 12 -2 2 7 -10 -4 -3 1 -5 -5 -2 0 2 5 -2 3 4 -0 -2 3 11 -6 4 3 4 1 -3 2 2
3 -1 -2 2 -2 -0 0 1 -5 -9 -7 -3 -6 -15 14 -8 5 12 1 6 -3 1 -7 -0 -2 -2 4 -0 -2 4 -4 6 -1 -4 9 -6 1 11 3 3 0 2 1 1
-3 6 1 -2 -1 -3 7 0 -3 -5 -2 -19 12 7 -6 1 -2 13 -9 -5 4 8 -1 -9 -2 2 3 2 -0 6 -7 8 5 5 -0 -15 11 9 5 1 3 3 2 -2
3 -0 -0 0 -3 -4 -2 1 -3 -1 -10 -9 -0 2 -17 -3 -14 -10 -3 -4 -0 -0 -5 1 -4 0 -3 -2 5 6 -9 7 6 5 -15 1 9 7 1 5 2 1 -0 2
-2 0 3 -2 -3 -1 -1 -0 -1 -5 3 -14 -9 8 -0 -8 -10 -6 -4 3 5 -5 -8 -2 5 -12 -4 -7 1 3 -2 -2 3 -12 -2 15 11 -2 -2 3 5 0 3 2
-1 1 -0 -5 1 -1 -1 -4 -2 -1 -6 5 -13 14 19 5 2 4 1 0 1 -2 1 -5 -2 -3 -3 5 2 6 1 2 -6 -4 12 8 2 1 5 1 2 3 1 3
1 0 -2 -0 -2 -3 -0 -0 0 -3 -7 14 -18 12 -14 -7 -5 -5 -10 -1 4 -5 -10 3 7 -8 -6 6 2 22 -4 1 10 14 8 2 2 2 4 1 3 1 3 -0
-1 3 -1 -5 -4 0 2 -4 -3 -4 0 1 2 1 -0 3 -4 2 4 2 -0 5 -11 2 5 -3 5 1 7 7 9 7 12 4 3 2 3 3 1 1 3 1 -0 3
0 -1 -2 -3 -3 1 4 1 1 3 1 -12 9 -9 -1 -5 4 -5 -4 4 16 5 2 3 -0 -2 -1 -3 -0 15 4 5 4 2 2 2 2 -0 -0 3 1 1 2 1
-0 -1 1 -1 -1 -0 -3 -2 0 -3 -2 -7 -3 0 -7 -0 -1 -4 -4 0 2 1 3 -4 -1 -9 -5 0 4 -2 -3 3 3 5 9 4 1 1 2 -1 2 -0 1 5
-2 -3 3 -2 -1 -1 5 1 -0 -5 1 -3 2 -1 1 -4 0 3 2 2 2 -1 -1 -1 -6 -6 -5 -3 -3 2 -3 -1 4 5 1 2 0 1 0 1 1 4 3 2
-2 -0 3 -1 1 0 3 -3 -4 1 -2 1 -1 -2 -2 -4 -11 -4 -6 -2 -1 1 -0 -4 -0 3 2 -3 -1 -2 1 0 3 4 4 -0 -1 -1 4 0 2 2 -1 -1
-1 -1 -1 2 3 -2 1 -3 -0 4 -1 1 0 -1 -1 -3 1 -1 -2 -1 -2 1 3 2 -2 -4 -5 -6 -3 -1 0 3 3 3 1 -0 2 5 -1 -1 0 2 7 -1
-1 0 2 -0 -0 1 -1 1 2 2 -3 -1 -2 0 -4 -1 -2 -1 2 -3 -5 -3 -1 0 -0 1 3 4 2 1 5 6 8 4 4 7 8 26 9 13 3 -1 0 4
-0 1 0 -3 4 -2 -2 2 1 2 -1 -1 0 1 -4 -5 -0 1 -0 2 5 2 -9 5 -3 4 -5 -1 4 1 32 2 6 7 7 37 41 10 -9 3 2 3 0 -0
2 1 -3 3 -0 -1 1 0 1 -1 -1 1 -3 0 -3 -1 -4 -2 2 1 -0 -0 1 1 57 17 35 9 10 26 33 61 27 19 -0 1 -0 1 6 1 -2 -0 0 1
-2 -2 2 -1 -1 1 1 2 0 0 -2 1 -0 -2 -0 1 -4 -2 -2 -3 -2 1 -1 -4 -5 0 1 -1 2 5 8 6 3 1 3 2 -3 -5 -3 -2 1 0 0 -1
-2 -2 -0 2 -1 0 -2 0 -1 -1 0 -3 0 -2 13 -1 -2 -1 -2 -1 3 1 -5 -2 -1 0 3 4 3 -0 -1 1 3 -1 -4 -3 -1 -1 -3 1 1 -3 0 -0
-0 1 -0 -2 1 2 0 1 -0 -2 1 -1 1 0 -0 5 1 -1 2 2 -0 -0 -0 -1 -2 -3 -2 -1 -1 -2 -1 -0 -0 -1 -1 -1 -1 -2 1 -0 -0 -1 -0 1
-1 -5 -0 -3 1 -1 0 1 0 -2 1 -3 1 0 -1 1 2 -1 1 0 1 -1 -1 -1 1 3 -0 1 1 1 1 2 1 -0 1 0 -1 -0 -0 -0 -2 2 2 1
Height
5655 5661 5667 5672 5676 5681 5686 5690 5695 5700 5703 5708 5711 5716 5721 5723 5726 5730 5731 5732 5734 5737 5738 5739 5742 5744 5745 5747 5747 5751 5752 5756 5756 5756 5758 5763 5761 5760 5765 5768 5768 5769 5769 5769
5650 5657 5661 5666 5671 5676 5681 5686 5690 5693 5697 5699 5704 5711 5714 5717 5720 5721 5724 5725 5726 5727 5728 5729 5732 5734 5736 5738 5740 5741 5742 5746 5750 5749 5751 5752 5751 5755 5757 5759 5760 5762 5764 5762
5646 5652 5656 5661 5667 5672 5675 5680 5683 5688 5691 5695 5696 5704 5707 5710 5714 5714 5714 5715 5715 5717 5718 5721 5722 5723 5726 5728 5731 5733 5733 5734 5736 5742 5740 5742 5745 5749 5750 5751 5751 5754 5755 5755
5640 5647 5652 5658 5664 5668 5671 5675 5679 5682 5685 5689 5692 5696 5702 5704 5705 5706 5705 5704 5704 5705 5707 5708 5709 5711 5711 5714 5716 5719 5722 5724 5724 5729 5730 5733 5736 5739 5742 5743 5744 5746 5746 5747
5640 5645 5650 5655 5660 5665 5668 5672 5674 5677 5679 5683 5687 5688 5698 5697 5696 5694 5691 5692 5691 5691 5692 5693 5694 5696 5697 5698 5701 5705 5708 5713 5714 5718 5721 5725 5728 5731 5733 5735 5737 5738 5739 5738
5636 5643 5648 5653 5657 5661 5664 5667 5669 5671 5674 5677 5679 5681 5690 5686 5684 5679 5675 5675 5674 5673 5675 5676 5678 5680 5682 5684 5685 5688 5692 5698 5703 5706 5711 5716 5721 5722 5724 5727 5729 5730 5729 5730
5636 5642 5645 5650 5655 5657 5660 5662 5664 5666 5668 5671 5668 5672 5681 5676 5667 5664 5662 5659 5658 5657 5658 5660 5661 5664 5667 5669 5672 5673 5678 5683 5689 5694 5699 5705 5712 5713 5715 5718 5720 5721 5723 5723
5633 5639 5642 5646 5650 5653 5655 5657 5658 5659 5660 5662 5661 5663 5665 5661 5658 5650 5648 5647 5648 5646 5644 5645 5648 5651 5654 5656 5658 5660 5664 5669 5674 5682 5687 5692 5701 5703 5706 5708 5711 5714 5715 5715
5629 5635 5639 5642 5645 5648 5651 5651 5653 5653 5653 5652 5652 5653 5651 5648 5644 5641 5636 5632 5629 5628 5626 5628 5631 5635 5636 5638 5643 5646 5649 5654 5662 5669 5673 5681 5689 5694 5697 5699 5702 5705 5706 5707
5627 5631 5634 5638 5640 5642 5643 5647 5648 5647 5645 5645 5644 5642 5639 5635 5630 5627 5620 5614 5610 5608 5609 5610 5614 5615 5618 5621 5627 5631 5636 5640 5646 5653 5661 5672 5679 5682 5686 5689 5693 5696 5698 5699
5623 5627 5632 5634 5636 5637 5640 5641 5641 5640 5641 5636 5635 5634 5629 5625 5620 5614 5610 5605 5598 5592 5587 5591 5595 5594 5597 5602 5610 5616 5622 5626 5633 5639 5653 5663 5669 5673 5677 5681 5685 5688 5689 5690
5620 5624 5629 5629 5631 5633 5635 5636 5635 5633 5632 5630 5629 5622 5623 5617 5610 5604 5598 5591 5584 5577 5575 5576 5573 5571 5574 5580 5586 5598 5606 5614 5621 5635 5645 5652 5658 5663 5669 5673 5676 5679 5681 5682
5618 5622 5624 5626 5628 5630 5630 5629 5629 5627 5626 5630 5620 5619 5612 5605 5599 5589 5579 5573 5569 5563 5557 5560 5558 5555 5558 5564 5572 5583 5591 5604 5615 5626 5634 5643 5649 5655 5661 5665 5668 5671 5673 5674
5615 5619 5621 5622 5624 5626 5626 5624 5623 5621 5621 5617 5619 5606 5608 5600 5590 5580 5569 5561 5555 5548 5544 5545 5546 5547 5550 5555 5563 5575 5587 5595 5606 5615 5626 5634 5642 5649 5654 5658 5662 5665 5667 5668
5614 5616 5618 5619 5619 5621 5622 5621 5620 5619 5617 5610 5610 5603 5600 5593 5584 5574 5562 5553 5546 5539 5535 5535 5539 5543 5547 5551 5560 5571 5581 5589 5600 5610 5620 5629 5637 5643 5648 5652 5656 5659 5660 5661
5611 5613 5614 5614 5616 5617 5618 5617 5616 5615 5611 5607 5603 5602 5594 5589 5580 5573 5560 5550 5541 5535 5530 5530 5534 5540 5545 5552 5560 5570 5579 5588 5597 5607 5618 5626 5633 5638 5643 5648 5651 5652 5653 5653
5608 5609 5611 5611 5612 5614 5616 5615 5613 5612 5609 5606 5602 5597 5592 5587 5579 5572 5564 5553 5543 5534 5531 5531 5535 5540 5546 5553 5561 5570 5578 5589 5599 5609 5617 5624 5630 5635 5639 5643 5645 5646 5645 5644
5605 5606 5608 5609 5610 5611 5612 5610 5609 5607 5606 5602 5598 5593 5590 5587 5578 5572 5566 5558 5549 5542 5539 5538 5540 5544 5550 5557 5565 5573 5582 5591 5600 5608 5615 5621 5626 5630 5634 5637 5638 5639 5637 5635
5601 5603 5604 5606 5608 5609 5609 5608 5606 5605 5604 5598 5597 5593 5588 5585 5579 5575 5568 5563 5558 5553 5550 5549 5550 5553 5558 5564 5571 5578 5585 5594 5601 5608 5614 5619 5623 5626 5628 5629 5631 5630 5629 5627
5599 5600 5603 5604 5606 5607 5607 5606 5604 5603 5601 5597 5595 5593 5590 5585 5581 5578 5572 5569 5565 5561 5559 5559 5559 5562 5566 5570 5575 5581 5590 5596 5603 5607 5611 5617 5620 5622 5624 5624 5623 5622 5621 5618
5596 5597 5600 5602 5604 5605 5605 5604 5602 5602 5602 5596 5594 5592 5590 5587 5584 5581 5577 5575 5574 5570 5568 5568 5568 5570 5572 5576 5579 5585 5594 5596 5601 5606 5613 5614 5612 5615 5618 5617 5616 5615 5612 5609
5594 5596 5598 5600 5601 5604 5603 5602 5601 5599 5596 5596 5594 5593 5590 5588 5587 5584 5582 5581 5579 5577 5576 5576 5568 5578 5577 5580 5587 5593 5591 5594 5601 5606 5610 5610 5611 5612 5612 5611 5610 5607 5604 5600
5593 5595 5597 5599 5600 5601 5601 5600 5599 5597 5595 5594 5593 5592 5591 5590 5589 5588 5586 5585 5584 5583 5582 5583 5584 5586 5589 5593 5595 5597 5598 5600 5603 5604 5605 5607 5608 5608 5606 5605 5601 5598 5595 5590
5590 5593 5594 5597 5598 5598 5599 5599 5596 5595 5594 5593 5592 5592 5590 5591 5590 5590 5589 5588 5588 5587 5587 5587 5588 5590 5591 5592 5593 5595 5597 5600 5602 5603 5604 5604 5603 5602 5600 5597 5593 5589 5585 5581
5589 5592 5593 5594 5596 5597 5597 5596 5595 5593 5592 5592 5591 5592 5591 5592 5591 5591 5590 5590 5591 5591 5591 5592 5593 5593 5594 5595 5597 5598 5599 5600 5601 5601 5601 5599 5598 5595 5592 5589 5585 5581 5576 5571
5586 5588 5590 5592 5594 5594 5595 5594 5592 5591 5590 5590 5589 5590 5590 5590 5591 5591 5592 5592 5592 5592 5593 5593 5594 5595 5596 5598 5598 5599 5599 5599 5598 5597 5595 5593 5590 5587 5584 5580 5576 5572 5567 5562